When you browse on this site, cookies collect data to enhance your experience and personalize the content and advertising you see.
Visit our Privacy Policy to learn more. By continuing to use the site, you agree to this use of cookies and data.
  • In Hungary
  • List of Countries
  • For 7 days
  • Water Temperature
  • Weather Map
  • News
  • Weather Widgets
  • user-avatar
    Login

    Hourly Weather Horoshenkoe

    Today, 19 October, Saturday

    Time Temperature Precipitation Wind Pressure Humidity
    00:00 +9°C° 0 mm 2 mps 755 mmHg 91%
    01:00 +9°C° 0 mm 2 mps 756 mmHg 91%
    02:00 +9°C° 0 mm 2 mps 756 mmHg 92%
    03:00 +9°C° 0 mm 2 mps 756 mmHg 96%
    04:00 +9°C° 0 mm 2 mps 757 mmHg 96%
    05:00 +9°C° 0 mm 2 mps 757 mmHg 96%
    06:00 +9°C° 0 mm 2 mps 757 mmHg 96%
    07:00 +9°C° 0.1 mm 2 mps 758 mmHg 94%
    08:00 +9°C° 0.1 mm 3 mps 758 mmHg 93%
    09:00 +9°C° 0 mm 3 mps 759 mmHg 89%
    10:00 +7°C° 0 mm 4 mps 759 mmHg 86%
    11:00 +7°C° 0 mm 4 mps 760 mmHg 83%
    12:00 +7°C° 0 mm 4 mps 760 mmHg 81%
    13:00 +7°C° 0 mm 4 mps 760 mmHg 78%
    14:00 +8°C° 0 mm 3 mps 761 mmHg 76%
    15:00 +8°C° 0 mm 3 mps 761 mmHg 73%
    16:00 +8°C° 0 mm 3 mps 761 mmHg 75%
    17:00 +7°C° 0 mm 3 mps 762 mmHg 77%
    18:00 +5°C° 0 mm 3 mps 762 mmHg 79%
    19:00 +4°C° 0 mm 3 mps 762 mmHg 81%
    20:00 +4°C° 0 mm 3 mps 763 mmHg 82%
    21:00 +4°C° 0 mm 2 mps 763 mmHg 84%
    22:00 +3°C° 0 mm 2 mps 763 mmHg 85%
    23:00 +3°C° 0 mm 2 mps 763 mmHg 86%

    Tomorrow, 20 October, Sunday

    Time Temperature Precipitation Wind Pressure Humidity
    00:00 +2°C° 0 mm 2 mps 763 mmHg 87%
    01:00 +2°C° 0 mm 2 mps 764 mmHg 88%
    02:00 +2°C° 0 mm 2 mps 764 mmHg 88%
    03:00 +3°C° 0 mm 1 mps 764 mmHg 89%
    04:00 +3°C° 0 mm 1 mps 765 mmHg 90%
    05:00 +2°C° 0 mm 1 mps 765 mmHg 90%
    06:00 +2°C° 0 mm 1 mps 765 mmHg 91%
    07:00 +4°C° 0 mm 1 mps 765 mmHg 88%
    08:00 +5°C° 0 mm 1 mps 765 mmHg 84%
    09:00 +6°C° 0 mm 1 mps 766 mmHg 80%
    10:00 +7°C° 0 mm 1 mps 766 mmHg 77%
    11:00 +7°C° 0 mm 2 mps 766 mmHg 75%
    12:00 +9°C° 0 mm 2 mps 766 mmHg 72%
    13:00 +9°C° 0 mm 2 mps 766 mmHg 72%
    14:00 +9°C° 0 mm 2 mps 766 mmHg 72%
    15:00 +9°C° 0 mm 2 mps 766 mmHg 72%
    16:00 +8°C° 0 mm 2 mps 766 mmHg 76%
    17:00 +7°C° 0 mm 2 mps 766 mmHg 81%
    18:00 +6°C° 0 mm 2 mps 766 mmHg 85%
    19:00 +6°C° 0 mm 2 mps 766 mmHg 86%
    20:00 +6°C° 0 mm 2 mps 766 mmHg 87%
    21:00 +5°C° 0 mm 2 mps 766 mmHg 88%
    22:00 +5°C° 0 mm 2 mps 766 mmHg 88%
    23:00 +4°C° 0 mm 3 mps 766 mmHg 88%

    Day after tomorrow, 21 October, Monday

    Time Temperature Precipitation Wind Pressure Humidity
    00:00 +4°C° 0 mm 3 mps 766 mmHg 88%
    01:00 +4°C° 0 mm 3 mps 766 mmHg 87%
    02:00 +4°C° 0 mm 3 mps 766 mmHg 87%
    03:00 +3°C° 0 mm 3 mps 766 mmHg 86%
    04:00 +3°C° 0 mm 3 mps 766 mmHg 86%
    05:00 +4°C° 0 mm 2 mps 766 mmHg 87%
    06:00 +4°C° 0 mm 2 mps 766 mmHg 88%
    07:00 +4°C° 0 mm 3 mps 766 mmHg 83%
    08:00 +6°C° 0 mm 4 mps 766 mmHg 79%
    09:00 +7°C° 0 mm 4 mps 766 mmHg 75%
    10:00 +8°C° 0 mm 5 mps 766 mmHg 71%
    11:00 +9°C° 0 mm 5 mps 765 mmHg 67%
    12:00 +12°C° 0 mm 5 mps 765 mmHg 64%
    13:00 +12°C° 0 mm 5 mps 764 mmHg 64%
    14:00 +12°C° 0 mm 5 mps 764 mmHg 64%
    15:00 +12°C° 0 mm 5 mps 764 mmHg 64%
    16:00 +10°C° 0 mm 5 mps 763 mmHg 67%
    17:00 +9°C° 0 mm 5 mps 763 mmHg 70%
    18:00 +8°C° 0 mm 5 mps 763 mmHg 74%
    19:00 +8°C° 0 mm 5 mps 762 mmHg 73%
    20:00 +8°C° 0 mm 5 mps 762 mmHg 72%
    21:00 +8°C° 0 mm 6 mps 762 mmHg 71%
    22:00 +7°C° 0 mm 6 mps 761 mmHg 72%
    23:00 +7°C° 0 mm 6 mps 761 mmHg 72%

    22 October, Tuesday

    Time Temperature Precipitation Wind Pressure Humidity
    00:00 +7°C° 0 mm 6 mps 760 mmHg 72%
    01:00 +7°C° 0 mm 6 mps 759 mmHg 73%
    02:00 +7°C° 0 mm 6 mps 759 mmHg 75%
    03:00 +7°C° 0 mm 6 mps 758 mmHg 76%
    04:00 +8°C° 0 mm 6 mps 758 mmHg 77%
    05:00 +8°C° 0 mm 6 mps 758 mmHg 78%
    06:00 +8°C° 0 mm 6 mps 757 mmHg 80%
    07:00 +8°C° 1.1 mm 6 mps 757 mmHg 83%
    08:00 +8°C° 1.1 mm 6 mps 757 mmHg 87%
    09:00 +8°C° 1.1 mm 5 mps 757 mmHg 90%
    10:00 +9°C° 0.1 mm 5 mps 757 mmHg 89%
    11:00 +11°C° 0.1 mm 4 mps 757 mmHg 88%
    12:00 +11°C° 0.1 mm 4 mps 757 mmHg 87%
    13:00 +12°C° 0.1 mm 3 mps 758 mmHg 84%
    14:00 +12°C° 0.1 mm 3 mps 758 mmHg 81%
    15:00 +14°C° 0.1 mm 2 mps 758 mmHg 78%
    16:00 +13°C° 0 mm 2 mps 758 mmHg 81%
    17:00 +10°C° 0 mm 2 mps 758 mmHg 84%
    18:00 +9°C° 0 mm 2 mps 759 mmHg 86%
    19:00 +10°C° 0 mm 1 mps 759 mmHg 87%
    20:00 +9°C° 0 mm 1 mps 759 mmHg 87%
    21:00 +9°C° 0 mm 1 mps 759 mmHg 87%
    22:00 +9°C° 0 mm 1 mps 759 mmHg 88%
    23:00 +9°C° 0 mm 1 mps 759 mmHg 89%

    23 October, Wednesday

    Time Temperature Precipitation Wind Pressure Humidity
    00:00 +8°C° 0 mm 2 mps 759 mmHg 90%
    01:00 +8°C° 0 mm 2 mps 760 mmHg 91%
    02:00 +7°C° 0 mm 2 mps 760 mmHg 92%
    03:00 +7°C° 0 mm 2 mps 760 mmHg 93%
    04:00 +7°C° 0 mm 2 mps 760 mmHg 93%
    05:00 +6°C° 0 mm 2 mps 760 mmHg 93%
    06:00 +6°C° 0 mm 2 mps 760 mmHg 93%
    07:00 +6°C° 0 mm 2 mps 760 mmHg 88%
    08:00 +7°C° 0 mm 3 mps 761 mmHg 84%
    09:00 +7°C° 0 mm 3 mps 761 mmHg 80%
    10:00 +8°C° 0 mm 3 mps 761 mmHg 74%
    11:00 +9°C° 0 mm 3 mps 761 mmHg 68%
    12:00 +10°C° 0 mm 3 mps 761 mmHg 62%
    13:00 +10°C° 0 mm 3 mps 761 mmHg 62%
    14:00 +10°C° 0 mm 3 mps 760 mmHg 63%
    15:00 +10°C° 0 mm 3 mps 760 mmHg 63%
    16:00 +9°C° 0 mm 3 mps 760 mmHg 68%
    17:00 +8°C° 0 mm 2 mps 760 mmHg 72%
    18:00 +7°C° 0 mm 2 mps 760 mmHg 76%
    19:00 +7°C° 0 mm 2 mps 760 mmHg 78%
    20:00 +7°C° 0 mm 3 mps 760 mmHg 80%
    21:00 +7°C° 0 mm 3 mps 760 mmHg 81%
    22:00 +7°C° 0 mm 3 mps 759 mmHg 81%
    23:00 +5°C° 0 mm 3 mps 759 mmHg 82%

    24 October, Thursday

    Time Temperature Precipitation Wind Pressure Humidity
    00:00 +5°C° 0 mm 4 mps 758 mmHg 82%
    01:00 +6°C° 0 mm 4 mps 758 mmHg 81%
    02:00 +6°C° 0 mm 4 mps 758 mmHg 80%
    03:00 +6°C° 0 mm 4 mps 758 mmHg 79%
    04:00 +7°C° 0 mm 4 mps 757 mmHg 80%
    05:00 +7°C° 0 mm 4 mps 757 mmHg 80%
    06:00 +7°C° 0 mm 5 mps 757 mmHg 81%
    07:00 +8°C° 0 mm 5 mps 757 mmHg 81%
    08:00 +9°C° 0 mm 5 mps 757 mmHg 82%
    09:00 +10°C° 0 mm 5 mps 756 mmHg 82%
    10:00 +10°C° 0 mm 5 mps 757 mmHg 81%
    11:00 +12°C° 0 mm 5 mps 757 mmHg 80%
    12:00 +13°C° 0 mm 5 mps 757 mmHg 79%
    13:00 +13°C° 0 mm 5 mps 757 mmHg 81%
    14:00 +13°C° 0 mm 4 mps 757 mmHg 83%
    15:00 +12°C° 0 mm 3 mps 757 mmHg 86%
    16:00 +12°C° 0 mm 3 mps 757 mmHg 88%
    17:00 +12°C° 0 mm 3 mps 758 mmHg 90%
    18:00 +12°C° 0 mm 2 mps 758 mmHg 92%
    19:00 +12°C° 0 mm 2 mps 758 mmHg 92%
    20:00 +12°C° 0 mm 2 mps 758 mmHg 91%
    21:00 +11°C° 0 mm 1 mps 759 mmHg 90%
    22:00 +11°C° 0 mm 1 mps 759 mmHg 90%
    23:00 +11°C° 0 mm 1 mps 759 mmHg 89%
    Show more